Temperature
7 5 5 5 5 6 6 6 5 6 5 5 4 4 4 5 4 4 4 4 4 4 4 4 4 4 3 3 3 3 3 3 3 3 3 3 4 4 4 4 5 5 5 5
5 4 5 5 5 6 6 5 5 5 5 5 3 3 4 4 4 4 4 4 4 3 3 3 3 3 3 3 3 2 2 2 2 3 3 3 3 3 3 4 4 4 4 5
6 5 5 6 5 5 5 5 5 5 4 4 3 3 4 4 4 4 4 4 3 3 3 3 2 2 2 2 2 2 2 2 2 2 2 2 2 3 3 3 3 4 4 4
4 5 5 5 5 5 5 4 4 4 3 2 3 3 3 3 2 2 2 2 2 3 2 2 2 2 2 2 2 2 2 2 2 2 2 2 2 2 2 3 3 3 3 4
4 4 5 5 4 4 4 4 3 3 2 2 2 2 2 2 2 2 1 2 2 2 2 2 2 2 2 2 1 1 1 1 1 1 1 1 1 2 2 2 2 3 3 3
4 4 4 4 4 4 3 3 2 1 1 2 2 1 2 1 2 2 1 1 1 2 2 1 1 1 1 1 1 1 1 1 1 1 1 1 1 1 2 2 2 2 2 3
3 3 3 3 3 3 2 2 2 2 1 2 2 2 1 1 1 1 1 1 1 1 1 1 1 1 1 1 0 0 0 0 0 0 0 1 1 1 1 1 1 2 2 2
3 3 3 2 2 2 2 2 2 2 2 1 1 1 1 0 0 1 1 1 1 1 1 1 1 0 0 0 0 0 0 0 0 0 0 0 0 0 1 1 1 1 1 2
2 3 2 2 2 2 2 1 1 0 -0 -0 0 0 1 1 0 -0 -0 -0 -0 0 0 0 0 -0 -0 -0 -0 -0 -0 -0 -0 0 0 0 0 0 0 0 0 1 1 1
2 1 1 1 2 1 1 1 -0 -0 1 0 1 0 0 0 -0 -1 -1 -1 -1 -1 -1 -1 -0 -0 -1 -1 -1 -0 -1 -1 -0 -0 -0 -0 -0 -0 -0 -0 0 0 0 0
1 1 1 1 0 1 0 0 -0 -1 -1 -0 -0 1 -0 -1 -1 -2 -2 -1 -1 -1 -1 -1 -1 -1 -1 -1 -1 -1 -1 -1 -1 -1 -1 -1 -1 -1 -0 -0 -0 -0 -0 0
0 -1 -1 -0 -0 -0 -0 -0 -1 -0 -1 -2 -2 -0 -1 -2 -2 -2 -2 -2 -1 -1 -1 -1 -1 -1 -1 -2 -2 -2 -1 -1 -1 -1 -1 -1 -1 -1 -1 -1 -1 -0 -0 -0
-0 -1 -0 1 0 -0 -1 -1 -1 -2 -2 -2 -2 -0 -1 -2 -2 -2 -2 -2 -2 -2 -2 -2 -2 -2 -2 -2 -2 -2 -2 -2 -2 -1 -1 -1 -1 -1 -1 -1 -1 -1 -1 -1
0 -2 -1 1 1 -0 -1 -1 -2 -2 -2 -2 -2 -1 -2 -2 -3 -3 -3 -3 -3 -3 -3 -3 -3 -3 -3 -3 -3 -3 -2 -2 -2 -2 -2 -2 -1 -1 -1 -1 -1 -1 -1 -1
-1 -2 -3 -2 -1 -2 -2 -2 -2 -3 -2 -2 -2 -3 -2 -3 -4 -4 -4 -4 -4 -4 -4 -4 -4 -4 -4 -4 -3 -3 -3 -3 -3 -2 -2 -2 -2 -2 -2 -2 -1 -1 -1 -1
-3 -3 -3 -3 -2 -2 -2 -2 -2 -3 -3 -3 -3 -3 -3 -4 -4 -4 -5 -5 -5 -5 -5 -5 -5 -4 -4 -4 -4 -4 -3 -3 -3 -3 -3 -3 -2 -2 -2 -2 -2 -2 -2 -2
-3 -3 -3 -3 -3 -2 -2 -3 -3 -3 -4 -4 -4 -4 -4 -5 -5 -5 -5 -5 -6 -6 -6 -5 -5 -5 -5 -5 -5 -4 -4 -4 -4 -4 -3 -3 -3 -3 -2 -2 -2 -2 -2 -2
-4 -4 -4 -3 -3 -2 -2 -3 -4 -4 -4 -5 -5 -5 -5 -6 -5 -5 -5 -6 -6 -6 -6 -6 -5 -5 -5 -5 -5 -5 -4 -4 -4 -4 -4 -4 -3 -3 -3 -3 -3 -3 -3 -3
-4 -4 -4 -4 -4 -3 -2 -3 -4 -4 -4 -5 -6 -6 -6 -6 -6 -6 -6 -6 -6 -6 -6 -6 -6 -6 -6 -6 -5 -5 -5 -5 -5 -5 -4 -4 -4 -4 -4 -3 -3 -3 -3 -3
-5 -5 -4 -4 -4 -3 -3 -4 -4 -4 -4 -5 -6 -6 -7 -7 -7 -6 -6 -7 -7 -6 -6 -6 -6 -6 -6 -6 -6 -6 -6 -5 -5 -5 -5 -5 -5 -4 -4 -4 -4 -4 -4 -4
-5 -5 -5 -5 -5 -4 -5 -5 -4 -4 -4 -5 -5 -6 -7 -7 -7 -7 -7 -7 -7 -7 -7 -7 -7 -7 -7 -7 -7 -6 -6 -6 -6 -6 -6 -6 -5 -5 -5 -5 -5 -5 -5 -5
-5 -5 -5 -5 -5 -4 -5 -6 -5 -5 -5 -5 -5 -6 -6 -7 -7 -7 -7 -7 -7 -7 -7 -7 -7 -7 -7 -7 -7 -7 -7 -7 -7 -7 -6 -6 -6 -6 -6 -5 -5 -5 -5 -5
-6 -6 -5 -5 -5 -5 -6 -6 -5 -5 -6 -6 -6 -7 -7 -7 -8 -8 -8 -8 -8 -8 -8 -8 -8 -8 -8 -8 -8 -8 -7 -7 -7 -7 -7 -7 -7 -6 -6 -6 -6 -6 -6 -6
-7 -7 -6 -6 -6 -6 -6 -6 -6 -6 -6 -6 -7 -7 -7 -8 -8 -9 -9 -9 -9 -9 -9 -9 -8 -8 -8 -8 -8 -8 -8 -8 -8 -7 -7 -7 -7 -7 -7 -7 -7 -7 -7 -7
-7 -7 -7 -7 -7 -7 -6 -6 -6 -7 -7 -7 -7 -8 -8 -8 -9 -9 -9 -9 -9 -9 -9 -9 -9 -9 -9 -9 -9 -9 -9 -8 -8 -8 -8 -8 -8 -8 -8 -8 -8 -8 -8 -8
-8 -8 -7 -7 -6 -7 -7 -7 -7 -7 -8 -8 -8 -8 -9 -9 -9 -9 -10 -10 -10 -10 -10 -10 -9 -9 -9 -9 -9 -9 -9 -9 -9 -9 -8 -8 -8 -8 -8 -8 -8 -8 -8 -8
Wind_Speed
2 4 2 5 5 4 3 4 6 7 3 3 8 11 11 7 5 7 7 7 7 6 4 3 3 2 2 1 1 1 2 2 2 1 1 1 1 1 0 1 1 1 1 2
3 2 4 2 2 2 3 4 5 5 3 3 6 10 9 6 6 8 8 7 6 4 2 2 1 1 2 2 2 2 3 3 3 3 2 2 2 1 1 0 0 0 1 1
4 4 2 2 1 2 4 4 4 4 5 3 3 7 5 3 2 3 3 4 4 5 4 3 2 2 1 2 3 3 3 3 3 2 1 1 0 0 1 1 1 1 1 1
2 2 1 2 3 2 5 3 3 2 2 4 1 5 6 4 3 2 2 2 2 2 3 3 2 2 2 3 3 3 3 3 3 3 3 4 3 3 3 2 2 2 2 2
3 1 1 3 3 3 4 2 2 2 2 3 2 3 7 3 4 5 4 3 2 2 2 3 3 3 3 3 3 3 4 3 3 3 4 4 3 3 2 2 2 2 2 3
2 1 1 2 1 1 0 3 3 3 3 3 4 4 6 3 5 4 3 3 2 1 1 1 2 2 2 2 3 3 4 4 4 4 4 5 5 4 3 3 3 3 2 2
4 3 2 1 1 2 3 4 4 5 3 6 2 4 7 5 3 3 3 3 2 1 1 2 2 3 3 3 4 4 4 4 4 4 4 5 5 6 6 5 5 4 3 3
2 5 2 0 1 2 1 4 4 4 5 5 3 5 5 2 3 2 1 2 1 2 2 3 4 4 4 4 4 4 4 4 4 5 5 5 5 5 5 5 5 5 5 5
2 5 2 1 1 2 2 2 3 3 1 4 6 6 5 1 4 5 5 3 3 3 3 4 4 4 4 4 4 4 4 4 4 5 4 5 5 5 5 5 5 4 4 4
3 4 3 2 2 1 1 3 4 3 2 5 6 4 4 4 4 4 4 5 5 4 4 5 4 5 4 4 4 4 4 4 4 4 5 5 5 5 5 5 6 5 5 5
2 3 4 2 3 4 2 2 3 2 3 4 4 6 3 3 3 3 4 5 4 4 5 5 5 5 5 5 5 4 4 4 3 4 4 4 5 5 5 5 6 6 6 6
1 2 4 6 3 2 3 4 5 3 4 4 3 7 2 1 2 2 4 5 5 5 5 5 5 6 6 6 6 5 4 4 4 4 4 4 4 4 5 5 5 5 5 6
2 2 3 5 3 1 1 2 3 3 2 4 4 7 2 3 4 5 5 5 5 6 6 6 6 6 6 6 7 6 4 5 4 4 4 4 4 4 5 5 5 5 5 5
2 3 6 8 6 3 4 4 4 4 4 5 8 9 7 7 7 7 7 6 6 6 6 6 6 6 7 7 7 6 6 4 4 3 3 3 4 5 5 5 5 5 5 5
2 4 5 8 7 4 6 7 6 8 8 9 9 9 9 6 6 6 6 6 6 7 7 7 7 7 7 7 7 6 6 5 4 3 3 4 4 4 3 4 4 4 4 5
2 3 2 5 4 4 7 8 9 10 8 10 10 10 6 5 3 4 5 6 7 8 9 8 8 8 8 8 8 7 7 6 5 4 4 4 3 2 2 3 3 2 3 3
3 3 1 4 4 4 7 7 7 5 4 5 8 8 5 5 6 5 5 5 7 8 8 8 8 8 8 8 7 7 7 6 5 5 5 4 3 3 2 2 1 2 2 2
5 4 3 3 3 5 6 1 4 4 4 5 5 5 4 5 6 5 3 3 6 7 7 8 8 8 8 8 7 7 6 5 5 5 5 5 4 3 3 2 2 2 2 2
4 4 2 2 3 7 5 2 1 3 4 3 4 5 4 4 3 3 3 4 5 5 6 7 7 7 7 7 7 6 6 6 6 6 6 5 4 3 3 2 3 2 2 2
2 2 3 2 3 6 5 3 2 2 3 2 2 4 4 3 3 4 5 6 6 6 6 6 6 6 7 8 6 6 6 6 6 6 6 6 4 3 3 3 3 2 2 2
0 1 4 5 5 7 4 3 1 1 5 4 2 3 3 3 4 5 5 6 5 6 6 6 6 6 7 7 6 6 6 7 7 7 6 5 5 4 3 3 3 2 2 2
3 3 4 3 4 7 1 2 2 4 3 3 3 3 3 4 4 4 4 5 6 6 6 6 6 7 7 7 5 6 7 7 7 6 6 6 5 4 4 3 3 3 2 2
4 4 3 5 5 3 1 2 3 2 3 3 3 3 2 3 4 4 4 5 5 5 6 5 5 6 7 7 6 6 7 7 7 6 6 6 6 5 4 3 3 3 3 2
3 1 2 4 6 4 3 3 3 2 3 4 3 3 1 3 4 4 4 4 5 5 6 6 6 6 7 7 7 6 7 7 6 6 6 5 5 5 5 4 3 3 3 2
4 2 2 5 5 5 4 4 4 4 4 4 3 2 2 2 3 4 4 4 4 5 6 5 5 6 7 7 7 8 7 6 6 6 5 5 5 4 4 4 3 3 3 3
1 2 3 5 4 4 6 5 3 3 4 3 3 3 3 2 3 3 4 4 4 4 5 5 5 6 6 7 7 7 7 6 5 5 5 4 4 4 4 4 4 6 6 7
Wind_Direction
67 79 190 218 207 210 201 219 254 260 256 235 246 260 264 254 229 223 220 213 214 219 206 183 176 166 159 161 185 214 214 231 212 211 227 259 297 301 327 41 50 81 83 97
61 245 239 226 219 224 213 244 265 285 305 263 269 271 264 244 225 217 215 215 211 209 191 181 179 177 195 202 218 247 240 236 220 213 224 223 231 249 235 293 358 146 126 126
189 232 222 177 209 253 246 229 251 275 317 310 301 294 270 267 235 229 217 205 203 195 192 197 202 213 218 237 238 256 259 246 229 225 209 198 203 282 273 272 266 253 203 181
229 260 205 200 228 200 258 255 262 280 327 284 36 287 281 278 297 264 252 222 211 205 190 201 208 230 242 256 261 270 267 246 233 217 201 196 204 223 233 235 250 258 223 195
268 241 193 222 237 196 237 288 275 248 203 297 255 223 284 305 278 274 260 238 228 208 194 209 225 235 255 262 262 273 267 248 238 222 210 206 213 223 223 223 238 247 232 205
270 294 219 230 278 195 341 21 28 43 76 272 225 192 276 257 251 271 273 266 249 225 232 246 272 280 282 276 268 272 259 254 242 229 218 213 211 211 214 220 222 237 242 223
319 308 342 36 30 16 56 69 13 347 340 254 235 204 251 266 263 238 247 257 264 266 278 274 276 272 274 275 265 260 248 249 237 226 226 224 218 213 214 215 217 224 230 234
310 291 268 322 178 203 206 142 164 228 251 284 287 232 254 288 319 327 299 283 315 313 300 290 278 271 274 278 271 252 251 255 239 226 228 229 224 223 224 219 218 222 226 225
226 265 330 3 1 144 154 192 174 156 280 281 269 284 305 356 6 10 9 6 331 313 312 308 302 292 286 285 279 256 253 261 251 236 234 233 224 227 227 223 222 224 230 223
179 263 286 322 23 4 134 145 104 134 224 271 285 275 261 299 310 333 341 331 320 326 329 319 309 302 296 288 285 275 253 253 256 243 237 240 227 227 228 225 224 222 225 222
148 210 294 325 217 215 144 157 159 169 187 200 269 273 231 248 276 286 298 307 309 316 320 322 319 312 312 314 308 296 278 266 261 254 249 239 234 232 228 225 228 226 226 219
166 149 264 262 264 224 188 192 160 181 246 208 225 268 275 244 290 288 302 316 321 323 321 322 325 330 331 325 316 306 296 283 269 258 253 248 244 236 228 229 231 222 224 218
155 139 317 328 334 353 251 209 179 159 166 199 212 260 322 354 348 339 330 324 324 327 330 333 335 330 325 321 319 313 299 288 282 267 254 256 250 240 236 235 235 223 224 224
133 181 207 232 247 227 252 243 195 169 207 233 232 256 295 323 327 328 327 322 320 325 330 334 332 327 324 322 321 322 319 310 304 288 267 260 255 247 243 240 234 226 223 223
128 225 242 259 268 253 247 252 222 214 219 228 251 257 278 294 296 305 315 324 335 337 338 335 330 328 328 327 325 326 327 331 327 317 307 296 286 268 252 242 239 230 226 228
150 223 271 282 265 256 267 262 239 235 237 243 263 274 279 296 301 315 319 325 332 331 332 332 330 330 328 327 327 328 328 331 330 326 317 318 316 300 268 254 252 244 234 228
187 181 237 271 297 316 273 251 222 220 222 215 241 256 296 320 315 304 304 317 322 320 327 330 329 324 321 318 320 320 321 329 332 330 331 330 328 320 304 296 282 271 258 246
179 178 202 273 345 254 249 189 193 206 242 229 245 277 287 277 294 291 284 313 320 322 326 326 326 325 322 322 324 323 327 332 332 331 332 335 334 328 326 326 303 289 287 266
183 175 197 223 258 274 290 291 207 211 263 255 252 287 307 312 326 313 332 337 314 312 315 315 319 319 323 326 329 330 334 338 340 335 330 330 328 326 322 320 313 311 306 296
88 145 181 206 232 248 269 297 297 144 279 294 255 280 307 346 325 296 329 333 324 323 323 323 327 331 334 334 338 343 339 340 333 326 324 326 327 326 318 315 316 324 312 299
121 197 211 223 238 262 278 305 61 151 275 308 288 281 284 266 259 283 310 321 321 322 326 331 336 339 336 337 344 347 342 333 325 330 333 338 337 331 331 339 342 340 325 331
195 202 216 203 225 261 323 90 179 244 295 306 299 287 277 281 292 299 311 318 323 329 333 339 342 340 338 342 348 347 337 329 333 340 344 344 344 342 347 355 350 349 349 347
204 207 215 210 227 278 205 226 276 294 291 292 288 287 274 289 295 308 313 318 325 330 334 339 340 339 341 345 349 342 332 333 340 348 349 347 348 352 354 355 356 356 357 348
274 264 227 259 269 279 280 295 313 305 286 293 289 283 266 279 292 308 313 325 334 338 339 342 345 344 341 341 344 338 332 336 344 349 349 350 354 356 360 358 358 359 352 344
260 225 250 262 289 312 294 290 305 319 322 324 324 303 270 269 290 300 311 317 324 331 337 343 343 339 335 337 340 341 340 340 347 348 350 353 356 355 358 2 3 360 355 344
283 218 233 262 281 275 294 308 319 321 317 315 324 326 316 282 286 302 309 313 317 325 330 335 335 335 333 337 339 340 339 340 346 349 350 351 353 354 357 356 358 2 2 360
Height
1507 1511 1513 1511 1510 1510 1510 1511 1511 1506 1504 1505 1504 1499 1494 1492 1493 1492 1492 1492 1493 1493 1494 1495 1495 1495 1496 1496 1495 1496 1496 1495 1495 1495 1495 1495 1495 1496 1497 1498 1499 1500 1501 1502
1511 1512 1509 1508 1508 1509 1509 1510 1509 1505 1503 1504 1503 1498 1492 1489 1488 1487 1487 1488 1488 1489 1490 1490 1491 1491 1492 1492 1492 1492 1492 1492 1492 1492 1492 1492 1492 1492 1493 1494 1495 1497 1498 1499
1509 1509 1507 1507 1508 1509 1508 1510 1508 1507 1505 1503 1504 1497 1491 1486 1485 1485 1485 1485 1485 1485 1486 1487 1487 1488 1488 1488 1489 1488 1488 1488 1488 1488 1488 1488 1489 1489 1490 1491 1492 1493 1494 1496
1509 1507 1506 1507 1508 1508 1508 1506 1506 1506 1509 1510 1508 1508 1492 1489 1486 1484 1483 1483 1483 1484 1484 1484 1484 1484 1484 1485 1485 1485 1484 1484 1484 1484 1484 1484 1484 1484 1485 1487 1488 1490 1491 1492
1508 1507 1506 1507 1506 1507 1507 1505 1506 1506 1509 1512 1510 1511 1496 1490 1487 1483 1482 1481 1481 1482 1482 1482 1482 1481 1482 1482 1481 1481 1480 1479 1480 1480 1480 1480 1481 1481 1482 1484 1485 1486 1487 1488
1508 1507 1507 1506 1506 1506 1506 1507 1508 1512 1514 1513 1507 1510 1499 1492 1486 1483 1481 1481 1480 1480 1480 1480 1479 1479 1479 1478 1478 1477 1475 1475 1475 1475 1475 1476 1476 1477 1478 1479 1480 1482 1483 1484
1510 1508 1507 1507 1507 1507 1508 1512 1517 1518 1521 1511 1504 1504 1497 1486 1484 1482 1481 1480 1479 1478 1478 1478 1477 1476 1475 1474 1473 1472 1471 1470 1470 1471 1471 1471 1472 1473 1474 1475 1476 1477 1478 1479
1515 1512 1508 1507 1508 1509 1509 1511 1517 1519 1518 1511 1504 1502 1491 1486 1483 1481 1480 1479 1478 1477 1476 1476 1475 1474 1472 1470 1468 1467 1467 1466 1466 1466 1467 1468 1468 1469 1470 1471 1472 1473 1474 1475
1517 1512 1509 1508 1507 1508 1509 1513 1513 1519 1521 1521 1507 1500 1489 1484 1483 1481 1480 1478 1477 1476 1475 1474 1473 1471 1469 1467 1465 1464 1463 1463 1462 1463 1463 1463 1464 1465 1466 1466 1468 1469 1470 1471
1515 1517 1510 1509 1509 1509 1509 1511 1517 1520 1519 1517 1507 1502 1494 1486 1485 1483 1481 1479 1477 1475 1474 1473 1472 1469 1467 1465 1463 1461 1461 1460 1459 1459 1459 1459 1460 1461 1461 1462 1463 1464 1465 1467
1514 1518 1514 1511 1511 1509 1511 1512 1513 1518 1519 1519 1513 1500 1489 1488 1486 1484 1482 1480 1478 1475 1473 1471 1469 1467 1465 1462 1460 1458 1457 1456 1456 1456 1456 1456 1456 1456 1457 1458 1459 1460 1461 1462
1514 1518 1519 1512 1509 1508 1508 1508 1512 1516 1517 1519 1518 1503 1486 1486 1484 1483 1481 1479 1477 1475 1473 1470 1468 1465 1462 1460 1458 1455 1454 1453 1453 1452 1452 1452 1452 1452 1453 1453 1454 1455 1456 1457
1514 1518 1518 1510 1512 1511 1509 1508 1510 1512 1515 1518 1515 1500 1486 1485 1483 1482 1481 1479 1476 1474 1471 1469 1466 1463 1461 1458 1455 1453 1451 1450 1449 1449 1448 1448 1448 1448 1448 1449 1450 1451 1452 1452
1511 1516 1515 1510 1505 1506 1508 1508 1509 1511 1512 1512 1505 1494 1488 1486 1485 1482 1480 1478 1475 1473 1470 1467 1464 1462 1459 1456 1453 1451 1448 1447 1446 1446 1445 1444 1444 1444 1444 1445 1445 1446 1447 1448
1511 1515 1514 1509 1506 1506 1506 1505 1505 1507 1504 1503 1495 1494 1488 1487 1485 1482 1479 1477 1474 1471 1468 1465 1463 1460 1457 1454 1451 1449 1447 1445 1444 1443 1441 1441 1441 1440 1441 1441 1441 1442 1443 1443
1511 1513 1512 1509 1504 1504 1502 1499 1499 1500 1500 1498 1494 1491 1486 1485 1483 1481 1478 1476 1473 1470 1467 1464 1462 1459 1456 1453 1450 1447 1446 1444 1442 1440 1439 1438 1437 1437 1437 1437 1437 1437 1438 1439
1511 1513 1512 1508 1505 1502 1500 1495 1495 1496 1495 1495 1493 1489 1485 1484 1482 1479 1477 1476 1473 1470 1467 1464 1461 1458 1455 1452 1449 1447 1444 1442 1440 1439 1437 1436 1435 1434 1434 1434 1434 1433 1434 1434
1509 1510 1511 1510 1508 1504 1492 1490 1490 1491 1491 1491 1488 1486 1484 1483 1480 1478 1477 1475 1472 1469 1466 1463 1460 1457 1454 1452 1449 1446 1444 1441 1439 1437 1436 1434 1433 1432 1432 1431 1431 1431 1430 1430
1504 1507 1510 1510 1510 1501 1491 1490 1490 1491 1489 1487 1486 1484 1482 1481 1478 1476 1475 1473 1471 1468 1465 1463 1460 1457 1454 1450 1447 1444 1442 1440 1438 1436 1434 1433 1432 1431 1430 1429 1428 1428 1427 1427
1504 1506 1509 1510 1507 1503 1491 1489 1487 1489 1488 1484 1483 1482 1481 1480 1480 1476 1474 1471 1469 1467 1464 1461 1458 1455 1452 1449 1446 1444 1441 1438 1436 1435 1433 1431 1430 1429 1428 1427 1426 1426 1425 1425
1508 1508 1509 1508 1507 1497 1491 1488 1487 1492 1488 1483 1481 1480 1480 1479 1478 1475 1472 1470 1468 1465 1463 1460 1457 1454 1451 1448 1445 1442 1440 1437 1436 1434 1432 1430 1429 1428 1427 1426 1425 1424 1423 1423
1507 1507 1507 1505 1506 1498 1489 1489 1490 1488 1483 1482 1480 1479 1478 1476 1474 1472 1470 1468 1466 1463 1461 1458 1455 1452 1450 1447 1444 1441 1439 1437 1435 1432 1430 1429 1428 1426 1425 1424 1423 1422 1421 1421
1504 1502 1500 1499 1496 1490 1487 1486 1485 1484 1482 1480 1479 1477 1475 1473 1472 1470 1468 1466 1464 1462 1459 1457 1454 1452 1449 1446 1443 1440 1438 1436 1434 1432 1429 1428 1426 1425 1424 1422 1421 1420 1420 1419
1500 1498 1497 1496 1490 1487 1486 1484 1483 1482 1480 1478 1477 1475 1473 1471 1469 1468 1466 1464 1462 1460 1458 1456 1453 1450 1448 1445 1443 1440 1438 1436 1433 1430 1428 1427 1425 1424 1423 1421 1420 1419 1419 1418
1498 1497 1496 1493 1488 1485 1483 1482 1481 1479 1478 1476 1474 1473 1471 1469 1467 1466 1465 1463 1461 1459 1457 1455 1452 1449 1447 1445 1442 1440 1437 1435 1432 1430 1428 1426 1424 1423 1422 1421 1420 1419 1418 1418
1495 1496 1495 1490 1486 1485 1482 1480 1479 1477 1475 1473 1471 1470 1469 1468 1466 1464 1463 1461 1460 1458 1456 1454 1451 1449 1446 1444 1442 1440 1437 1435 1432 1429 1427 1425 1424 1422 1421 1420 1419 1418 1417 1417